Location: Brookview Estates
(36.0476°N, 86.6931°W)
Time: 11:02:39
(UTC+00:00)

Cosmos 1331 Rocket - Pass Details

Date: 30 March 2020
Orbit: 750 x 777 km, 74.0° (Epoch: 25 May)

Event Time Altitude Azimuth Distance (km) Brightness Sun altitude
Rises 01:03:05 0° 346° (NNW) 3,206 7.6 -12.1°
Reaches altitude 10° 01:05:29 10° 350° (N) 2,277 6.8 -12.5°
Maximum altitude 01:10:35 60° 70° (ENE) 854 4.0 -13.5°
Enters shadow 01:15:25 11° 150° (SSE) 2,180 5.9 -14.5°
